Wellsville, NY

3:02 PM EDT on March 26, 2017 (GMT -0400)
Wellsville Municipal-Tarantine

Weather History for KELZ - October, 2012

Change the Weather History Date:

Thursday, October 4, 2012

  Actual Average (KDSV) Record (KDSV)
Temperature  
Mean Temperature 64 °F -  
Max Temperature 71 °F 66 °F 89 °F (1951)
Min Temperature 57 °F 43 °F 27 °F (1974)
Degree Days  
Heating Degree Days 2    
Growing Degree Days 14 (Base 50)    
Moisture  
Dew Point 53 °F    
Average Humidity 80    
Maximum Humidity 94    
Minimum Humidity 42    
Precipitation  
Precipitation 0.00 in - - ()
Sea Level Pressure  
Sea Level Pressure 30.17 in    
Wind  
Wind Speed 3 mph (West)    
Max Wind Speed 13 mph    
Max Gust Speed 21 mph    
Visibility 7 miles    
Events Fog    
Averages and records for this station are not official NWS values.
T = Trace of Precipitation, MM = Missing Value Source: NWS Daily Summary

Daily Weather History Graph

Daily Weather History Graph

Search for Another Location

Airport or City:

Trip Planner

Search our weather history database for the weather conditions in past years. The results will help you decide how hot, cold, wet, or windy it might be!

Date:

Astronomy

Oct. 04, 2012 Rise Set
Actual Time 7:12 AM EDT 6:47 PM EDT
Civil Twilight 6:44 AM EDT 7:15 PM EDT
Nautical Twilight 6:12 AM EDT 7:47 PM EDT
Astronomical Twilight 5:39 AM EDT 8:20 PM EDT
Moon 9:17 PM EDT (10/4) 11:32 AM EDT (10/4)
Length of Visible Light 12h 30m
Length of Day
11h 34m
Waning Gibbous, 82% of the Moon is Illuminated
Oct 4
Waning Gibbous
Oct 8
Last Quarter
Oct 15
New
Oct 21
First Quarter
Oct 29
Full

Hourly Weather History & Observations

Time (EDT) Temp. Dew Point Humidity Pressure Visibility Wind Dir Wind Speed Gust Speed Precip Events Conditions
12:56 AM 62.1 °F 57.0 °F 84% 30.17 in 10.0 mi WSW 3.5 mph - N/A   Clear
1:56 AM 59.0 °F 55.9 °F 90% 30.18 in 10.0 mi NW 4.6 mph - N/A   Mostly Cloudy
2:20 AM 60.8 °F 57.2 °F 88% 30.20 in 10.0 mi NW 4.6 mph - N/A   Mostly Cloudy
2:46 AM 60.8 °F 57.2 °F 88% 30.19 in 10.0 mi Calm Calm - N/A   Mostly Cloudy
2:56 AM 60.1 °F 57.0 °F 90% 30.17 in 10.0 mi Calm Calm - N/A   Overcast
3:14 AM 60.8 °F 57.2 °F 88% 30.19 in 8.0 mi North 4.6 mph - N/A   Overcast
3:56 AM 59.0 °F 55.9 °F 90% 30.17 in 8.0 mi NNW 4.6 mph - N/A   Overcast
4:28 AM 59.0 °F 55.4 °F 88% 30.19 in 8.0 mi Calm Calm - N/A   Overcast
4:41 AM 57.2 °F 55.4 °F 94% 30.19 in 1.8 mi Calm Calm - N/A   Overcast
4:48 AM 57.2 °F 55.4 °F 94% 30.19 in 1.2 mi Calm Calm - N/A   Overcast
4:52 AM 57.2 °F 55.4 °F 94% 30.19 in 3.0 mi Calm Calm - N/A   Mostly Cloudy
4:56 AM 59.0 °F 55.9 °F 90% 30.17 in 4.0 mi Calm Calm - N/A   Mostly Cloudy
5:00 AM 57.2 °F 55.4 °F 94% 30.19 in 3.0 mi Calm Calm - N/A   Scattered Clouds
5:56 AM 57.9 °F 55.0 °F 90% 30.17 in 7.0 mi Calm Calm - N/A   Overcast
6:03 AM 57.2 °F 55.4 °F 94% 30.19 in 6.0 mi Calm Calm - N/A   Mostly Cloudy
6:23 AM 57.2 °F 55.4 °F 94% 30.20 in 5.0 mi Calm Calm - N/A   Scattered Clouds
6:56 AM 57.9 °F 55.0 °F 90% 30.18 in 5.0 mi Calm Calm - N/A   Clear
7:29 AM 57.2 °F 53.6 °F 88% 30.20 in 0.8 mi Calm Calm - N/A   Scattered Clouds
7:41 AM 57.2 °F 55.4 °F 94% 30.20 in 0.2 mi Calm Calm - N/A Fog Fog
7:48 AM 57.2 °F 55.4 °F 94% 30.20 in 0.2 mi Calm Calm - N/A Fog Fog
7:56 AM 57.0 °F 54.0 °F 89% 30.18 in 0.8 mi Calm Calm - N/A   Scattered Clouds
7:59 AM 57.2 °F 55.4 °F 94% 30.19 in 2.5 mi Calm Calm - N/A   Scattered Clouds
8:06 AM 57.2 °F 55.4 °F 94% 30.18 in 3.0 mi East 3.5 mph - N/A   Partly Cloudy
8:15 AM 57.2 °F 55.4 °F 94% 30.18 in 2.5 mi Calm Calm - N/A   Partly Cloudy
8:23 AM 57.2 °F 55.4 °F 94% 30.19 in 0.8 mi Calm Calm - N/A   Scattered Clouds
8:36 AM 57.2 °F 55.4 °F 94% 30.19 in 2.0 mi Calm Calm - N/A   Scattered Clouds
8:44 AM 57.2 °F 55.4 °F 94% 30.20 in 5.0 mi Calm Calm - N/A   Scattered Clouds
8:56 AM 57.9 °F 55.0 °F 90% 30.19 in 8.0 mi Calm Calm - N/A   Scattered Clouds
9:56 AM 60.1 °F 55.9 °F 86% 30.18 in 10.0 mi Calm Calm - N/A   Partly Cloudy
10:56 AM 63.0 °F 54.0 °F 72% 30.18 in 10.0 mi WSW 5.8 mph - N/A   Clear
11:56 AM 64.0 °F 50.0 °F 60% 30.17 in 10.0 mi WSW 9.2 mph - N/A   Clear
12:56 PM 66.0 °F 51.1 °F 59% 30.16 in 10.0 mi WNW 10.4 mph - N/A   Partly Cloudy
1:56 PM 69.1 °F 51.1 °F 53% 30.14 in 10.0 mi SW 9.2 mph 16.1 mph N/A   Scattered Clouds
2:56 PM 69.1 °F 48.9 °F 49% 30.12 in 10.0 mi WNW 10.4 mph 19.6 mph N/A   Mostly Cloudy
3:56 PM 70.0 °F 46.0 °F 42% 30.11 in 10.0 mi WSW 12.7 mph 19.6 mph N/A   Partly Cloudy
4:56 PM 69.1 °F 45.0 °F 42% 30.11 in 10.0 mi West 12.7 mph 20.7 mph N/A   Clear
5:56 PM 66.9 °F 46.0 °F 47% 30.11 in 10.0 mi West 9.2 mph - N/A   Clear
6:56 PM 64.9 °F 46.9 °F 52% 30.12 in 10.0 mi WSW 4.6 mph - N/A   Overcast
7:56 PM 63.0 °F 46.9 °F 56% 30.13 in 10.0 mi WSW 4.6 mph - N/A   Scattered Clouds
8:56 PM 62.1 °F 48.0 °F 60% 30.13 in 10.0 mi WSW 4.6 mph - N/A   Mostly Cloudy
10:56 PM 59.0 °F 48.0 °F 67% 30.13 in 10.0 mi SW 3.5 mph - N/A   Clear
11:56 PM 57.0 °F 48.0 °F 72% 30.12 in 10.0 mi WSW 3.5 mph - N/A   Clear